Change the Weather History Date:

Friday, July 12, 2013

  Actual Average Record
Temperature  
Mean Temperature 62 °F -  
Max Temperature 73 °F 79 °F 93 °F (2002)
Min Temperature 51 °F 46 °F 36 °F (1978)
Degree Days  
Heating Degree Days 3    
Growing Degree Days 12 (Base 50)    
Moisture  
Dew Point 53 °F    
Average Humidity 82    
Maximum Humidity 100    
Minimum Humidity 40    
Precipitation  
Precipitation 0.01 in - - ()
Sea Level Pressure  
Sea Level Pressure 30.06 in    
Wind  
Wind Speed 3 mph (SSW)    
Max Wind Speed 26 mph    
Max Gust Speed 39 mph    
Visibility 7 miles    
Events Fog , Rain , Thunderstorm    
Averages and records for this station are not official NWS values.
T = Trace of Precipitation, MM = Missing Value Source: NWS Daily Summary

Daily Weather History Graph

Daily Weather History Graph

Search for Another Location

Airport or City:

Trip Planner

Search our weather history database for the weather conditions in past years. The results will help you decide how hot, cold, wet, or windy it might be!

Date:

Astronomy

Jul. 12, 2013 Rise Set
Actual Time 6:17 AM MDT 8:51 PM MDT
Civil Twilight 5:46 AM MDT 9:21 PM MDT
Nautical Twilight 5:08 AM MDT 9:59 PM MDT
Astronomical Twilight 4:26 AM MDT 10:41 PM MDT
Moon 10:31 AM MDT (7/12) 11:09 PM MDT (7/12)
Length of Visible Light 15h 35m
Length of Day
14h 34m
Waxing Crescent, 18% of the Moon is Illuminated
Jul 12
Waxing Crescent
Jul 15
First Quarter
Jul 22
Full
Jul 29
Last Quarter
Aug 6
New

Hourly Weather History & Observations

Time (MDT) Temp. Dew Point Humidity Pressure Visibility Wind Dir Wind Speed Gust Speed Precip Events Conditions
12:53 AM 57.0 °F 55.9 °F 96% 29.87 in 10.0 mi Calm Calm - 0.01 in   Overcast
1:53 AM 57.0 °F 54.0 °F 89% 29.87 in 10.0 mi Calm Calm - N/A   Overcast
2:40 AM 53.6 °F 53.6 °F 100% 30.26 in 10.0 mi Calm Calm - N/A   Scattered Clouds
2:49 AM 55.4 °F 53.6 °F 94% 30.26 in 10.0 mi Calm Calm - N/A   Mostly Cloudy
2:53 AM 55.9 °F 54.0 °F 93% 29.96 in 10.0 mi Calm Calm - N/A   Mostly Cloudy
3:29 AM 55.4 °F 55.4 °F 100% 30.26 in 9.0 mi Calm Calm - N/A   Overcast
3:53 AM 55.0 °F 55.0 °F 100% 29.96 in 8.0 mi Calm Calm - N/A   Mostly Cloudy
4:04 AM 53.6 °F 53.6 °F 100% 30.26 in 2.5 mi Calm Calm - N/A   Mostly Cloudy
4:10 AM 53.6 °F 53.6 °F 100% 30.26 in 1.2 mi Calm Calm - N/A   Mostly Cloudy
4:21 AM 53.6 °F 53.6 °F 100% 30.25 in 0.5 mi Calm Calm - N/A Fog Fog
4:29 AM 53.6 °F 53.6 °F 100% 30.25 in 0.2 mi Calm Calm - N/A Fog Fog
4:42 AM 53.6 °F 53.6 °F 100% 30.26 in 0.5 mi SW 3.5 mph - N/A Fog Fog
4:51 AM 53.6 °F 53.6 °F 100% 30.25 in 0.2 mi South 3.5 mph - N/A Fog Fog
4:53 AM 53.1 °F 53.1 °F 100% 29.96 in 0.2 mi SSE 3.5 mph - N/A Fog Fog
5:15 AM 51.8 °F 51.8 °F 100% 30.25 in 1.0 mi SSE 5.8 mph - N/A   Mist
5:23 AM 51.8 °F 51.8 °F 100% 30.25 in 3.0 mi SSE 5.8 mph - N/A   Mostly Cloudy
5:33 AM 51.8 °F 51.8 °F 100% 30.26 in 6.0 mi Calm Calm - N/A   Scattered Clouds
5:40 AM 51.8 °F 51.8 °F 100% 30.26 in 1.8 mi Calm Calm - N/A   Scattered Clouds
5:53 AM 52.0 °F 52.0 °F 100% 29.96 in 3.0 mi Calm Calm - N/A   Scattered Clouds
6:53 AM 51.1 °F 51.1 °F 100% 29.97 in 9.0 mi Calm Calm - N/A   Partly Cloudy
7:53 AM 54.0 °F 53.1 °F 97% 29.98 in 10.0 mi Calm Calm - N/A   Scattered Clouds
8:53 AM 59.0 °F 55.0 °F 87% 29.97 in 10.0 mi South 4.6 mph - N/A   Partly Cloudy
9:53 AM 64.0 °F 55.9 °F 75% 29.96 in 10.0 mi SE 10.4 mph - N/A   Mostly Cloudy
10:53 AM 64.9 °F 57.0 °F 75% 29.96 in 10.0 mi SE 12.7 mph - N/A   Scattered Clouds
11:53 AM 68.0 °F 57.0 °F 68% 29.94 in 10.0 mi SE 11.5 mph - N/A   Scattered Clouds
12:53 PM 70.0 °F 55.0 °F 59% 29.93 in 10.0 mi SE 17.3 mph - N/A   Scattered Clouds
1:53 PM 72.0 °F 54.0 °F 53% 29.91 in 10.0 mi South 8.1 mph 17.3 mph N/A   Partly Cloudy
2:53 PM 73.9 °F 51.1 °F 45% 29.90 in 10.0 mi SW 15.0 mph 23.0 mph N/A   Mostly Cloudy
3:53 PM 71.1 °F 51.1 °F 49% 29.91 in 10.0 mi SSW 15.0 mph - 0.00 in   Partly Cloudy
4:53 PM 72.0 °F 46.0 °F 40% 29.89 in 10.0 mi SW 10.4 mph - N/A   Clear
5:53 PM 72.0 °F 48.9 °F 44% 29.88 in 10.0 mi SW 3.5 mph - N/A   Clear
6:53 PM 70.0 °F 48.0 °F 46% 29.91 in 10.0 mi SW 11.5 mph - N/A   Partly Cloudy
7:25 PM 68.0 °F 50.0 °F 52% 30.27 in 10.0 mi SW 26.5 mph 39.1 mph N/A Thunderstorm Mostly Cloudy
7:53 PM 59.0 °F 51.1 °F 75% 29.96 in 10.0 mi WNW 15.0 mph 27.6 mph 0.00 in Rain , Thunderstorm Light Rain
8:20 PM 60.8 °F 48.2 °F 63% 30.28 in 10.0 mi WSW 6.9 mph - 0.00 in   Overcast
8:53 PM 60.1 °F 51.1 °F 72% 29.95 in 10.0 mi West 8.1 mph - 0.00 in   Overcast
9:53 PM 60.1 °F 51.1 °F 72% 29.95 in 10.0 mi North 4.6 mph - N/A   Overcast
10:53 PM 60.1 °F 54.0 °F 80% 29.95 in 10.0 mi WNW 3.5 mph - N/A   Overcast
11:53 PM 59.0 °F 53.1 °F 81% 29.95 in 10.0 mi Calm Calm - N/A   Mostly Cloudy